Regional Weather Roundup
Issued by NWS

Home | Current Version | Previous Version | Graphics & Text | Print | Product List | Glossary On
Versions: 1 2 3 4 5 6 7 8 9 10 11 12 13 14 15 16 17 18 19 20 21 22 23 24 25 26 27
000
ASUS45 KTFX 220010
RWRMT
MONTANA REGIONAL WEATHER ROUNDUP
NATIONAL WEATHER SERVICE GREAT FALLS MT
500 PM MST TUE NOV 21 2017

NOTE: "FAIR" INDICATES FEW OR NO CLOUDS BELOW 12000 FEET WITH NO
SIGNIFICANT WEATHER AND/OR OBSTRUCTIONS TO VISIBILITY.

MTZ001>007-043-220100-
WEST OF THE DIVIDE

CITY           SKY/WX    TMP DP  RH WIND       PRES   REMARKS
KALISPELL      LGT RAIN  39  38  96 CALM      30.15F
MISSOULA       LGT RAIN  36  36 100 CALM      30.21S
BUTTE          CLOUDY    35  29  78 S3        30.20F
MULLAN PASS    LGT RAIN  33  31  92 S7        30.11F VSB 1/2 WCI  27
ANACONDA         N/A     37  28  70 CALM      30.17S
DEER LODGE       N/A     36  32  87 CALM      30.20S
EUREKA           N/A     41  36  81 MISG      30.12F
HAMILTON         N/A     37  34  87 CALM      30.20S
LIBBY            N/A     36  36 100 CALM      30.13F
RONAN            N/A     40  36  86 E2        30.18F
$$

MTZ008-052>055-220100-
SOUTHWEST MONTANA

CITY           SKY/WX    TMP DP  RH WIND       PRES   REMARKS
BOZEMAN        CLOUDY    34  32  92 E6        30.21R WCI  29
DILLON         CLOUDY    41  33  73 S6        30.22R
W YELLOWSTONE  CLOUDY    36  34  93 S6        30.34S WCI  31
ENNIS          MIX PCPN  43  32  65 S16G23    30.29R
TWIN BRIDGES     N/A     42  30  62 CALM      30.18S
$$

MTZ009-010-012-014-046-048-049-054-220100-
EAST SLOPES AND CENTRAL MONTANA

CITY           SKY/WX    TMP DP  RH WIND       PRES   REMARKS
CUT BANK       FAIR      26  24  92 SE13      30.01F WCI  15
GREAT FALLS    LGT RAIN  45  28  51 SW17      30.07F
MALMSTROM AFB  LGT RAIN  43  30  61 SW12      30.08F
HELENA         MOCLDY    37  32  82 CALM      30.16F
CHOTEAU          N/A     41  27  56 SE9       30.05F
POWER          CLOUDY    41  28  59 S10       30.05F
ULM            CLOUDY    46  30  54 SW9       30.08S
$$

MTZ011-013-016-021-045-047-050-051-220100-
NORTH CENTRAL MONTANA

CITY           SKY/WX    TMP DP  RH WIND       PRES   REMARKS
HAVRE          FAIR      26  14  60 E10       30.10F WCI  16
LEWISTOWN      FAIR      40  26  57 SW17      30.08S
N BAR RANCH    FAIR      30  27  86 NW6       30.11S WCI  24
CHINOOK          N/A     23  10  58 E5        30.13F
DENTON         MOCLDY    28  25  88 CALM      30.05S
GRASS RANGE    MOCLDY    31  27  83 CALM      30.05F
STANFORD       MOCLDY    38  28  66 CALM      30.07S
WINIFRED       FAIR      27  24  89 E3        30.07F
$$

MTZ017>020-022>027-061-062-220100-
NORTHEAST MONTANA

CITY           SKY/WX    TMP DP  RH WIND       PRES   REMARKS
GLASGOW        FAIR      15   0  51 E10       30.19F WCI   2
GLENDIVE       FAIR      19   7  59 CALM      30.25F
JORDAN           N/A     26  19  74 SE5       30.16S
SIDNEY         FAIR      16   2  54 E5        30.28F
WOLF POINT     CLOUDY    21   1  41 NE5       30.26F
MALTA          CLEAR     19   7  58 NE12      30.17F WCI   7
PLENTYWOOD       N/A     12   1  62 CALM      30.23F
POPLAR           N/A     19   0  42 E3        30.26F
$$

MTZ028>42-056>058-220100-
SOUTHCENTRAL AND SOUTHEAST MONTANA

CITY           SKY/WX    TMP DP  RH WIND       PRES   REMARKS
BAKER          FAIR      19  13  77 S5        30.22F
BILLINGS       CLOUDY    35  32  88 CALM      30.13F
LIVINGSTON     MOCLDY    50  32  50 SW29G40   30.15S
MILES CITY     FAIR      26  18  71 SE5       30.19F
BIG TIMBER     MOCLDY    50  25  37 W31G44    30.14R
FORSYTH          N/A     30  27  86 CALM      30.17F
HARLOWTON      MOCLDY    42  27  54 NW14      30.10F
LAUREL           N/A     39  32  75 W9        30.14F
$$

REGIONAL REPORTS...DAKOTAS

CITY           SKY/WX    TMP DP  RH WIND       PRES   REMARKS
WILLISTON      FAIR      12   0  58 CALM      30.29F
MINOT          FAIR      12   3  67 W8        30.31F WCI   0
DICKINSON      FAIR      16   0  49 CALM      30.24F
BEACH          FAIR      19   3  49 CALM      30.27S
CROSBY         FAIR       3  -2  78 CALM      30.29F
TIOGA          FAIR       7   0  72 W6        30.27F WCI  -3
WATFORD CITY   FAIR      10   0  61 CALM      30.28F
BISMARCK       FAIR      19   6  57 NW3       30.36S
GRAND FORKS    FAIR      16  11  80 W9        30.34S WCI   4
FARGO          FAIR      18   9  68 NW9       30.35R WCI   7
BUFFALO SD       N/A     29  11  47 CALM      30.17F
RAPID CITY     FAIR      25  17  72 E6        30.27F WCI  18
$$

REGIONAL REPORTS...WYOMING/IDAHO/WASHINGTON

CITY           SKY/WX    TMP DP  RH WIND       PRES   REMARKS
GILLETTE       FAIR      28  22  78 S6        30.17F WCI  22
SHERIDAN       FAIR      33  32  96 NW9       30.15F WCI  25
BUFFALO WY     FAIR      37  24  59 S6        30.17F
CODY           FAIR      42  31  64 CALM      30.18F
YELLOWSTONE LA   N/A     32  31  96 CALM      30.38R
IDAHO FALLS    LGT RAIN  40  40 100 VRB3      30.35R VSB 1
SALMON         LGT RAIN  38  36  92 CALM      30.29S
BOISE          LGT RAIN  53  49  86 SE6       30.24F
SPOKANE        LGT RAIN  40  40 100 NE5       30.09F VSB 1/2
$$

REGIONAL REPORTS...ALBERTA

CITY           SKY/WX    TMP DP  RH WIND       PRES   REMARKS
EDMONTON       CLEAR      9   0  66 S8        30.01F WCI  -4
CALGARY        CLOUDY    16  10  79 S10       29.89F WCI   3
LETHBRIDGE     CLOUDY    23  19  86 SE5       29.97F
$$

REGIONAL REPORTS...SASKATCHEWAN

CITY           SKY/WX    TMP DP  RH WIND       PRES   REMARKS
SWIFT CURRENT  CLEAR     10   3  72 S10       30.07F WCI  -3
REGINA         PTCLDY    -2  -8  78 SE5       30.24F
SASKATOON      PTCLDY    -4  -9  77 SW6       30.22F WCI -16
$$




USA.gov is the U.S. government's official web portal to all federal, state and local government web resources and services.